Skip Page Navigation
NASA JPL Caltech
NASA Logo - Jet Propulsion Laboratory + View the NASA Portal
+ Center for Near-Earth Object Studies
JPL Home Earth Solar System Stars & Galaxies Technology
JPL Solar System Dynamics
BODIES ORBITS EPHEMERIDES TOOLS PHYSICAL DATA DISCOVERY FAQ SITE MAP
JPL Small-Body Database Browser
Search: [ help ]  
300096 (2006 UB255)
Classification: Main-belt Asteroid          SPK-ID: 2300096
Ephemeris | Orbit Diagram | Orbital Elements | Mission Design | Physical Parameters | Discovery Circumstances | Close-Approach Data ]

[ show orbit diagram ]
Orbital Elements at Epoch 2459000.5 (2020-May-31.0) TDB
Reference: JPL 13 (heliocentric ecliptic J2000)
 Element Value Uncertainty (1-sigma)   Units 
e .150545136691097 5.8061e-08  
a 3.074929156686288 3.4512e-08 au
q 2.612013526477511 1.8574e-07 au
i 2.909025948413341 6.8896e-06 deg
node 59.81437081972301 0.00011102 deg
peri 317.2653632992423 0.00011277 deg
M 208.7786840142483 2.2413e-05 deg
tp 2459827.797307739010
(2022-Sep-05.29730774)
0.00012954 TDB
period 1969.4778401089
5.39
3.3157e-05
9.078e-08
d
yr
n .182789566182727 3.0773e-09 deg/d
Q 3.537844786895064 3.9707e-08 au
  Orbit Determination Parameters
   # obs. used (total)      244  
   data-arc span      4946 days (13.54 yr)  
   first obs. used      2006-10-12  
   last obs. used      2020-04-27  
   planetary ephem.      DE431  
   SB-pert. ephem.      SB431-N16  
   condition code      0  
   norm. resid. RMS      .63907  
   source      ORB  
   producer      Otto Matic  
   solution date      2020-May-21 19:32:35  

Additional Information
 Earth MOID = 1.61471 au 
 Jupiter MOID = 1.92414 au 
 T_jup = 3.210 
[ hide covariance matrix ]
Orbital Elements at Epoch 2457341.5 (2015-Nov-15.0) TDB
Reference: JPL 13 (heliocentric ecliptic J2000)
 Element Value Uncertainty (1-sigma)   Units 
e .1502351651639697 5.8149e-08  
q 2.613957399507456 1.8609e-07 au
tp 2457860.343171472051
(2017-Apr-16.84317147)
0.00011538 TDB
node 59.82926333933013 0.00011099 deg
peri 317.7614916750246 0.00011275 deg
i 2.909136522447192 6.8893e-06 deg
  Orbit Determination Parameters
   # obs. used (total)      244  
   data-arc span      4946 days (13.54 yr)  
   first obs. used      2006-10-12  
   last obs. used      2020-04-27  
   planetary ephem.      DE431  
   SB-pert. ephem.      SB431-N16  
   condition code      0  
   norm. resid. RMS      .63907  
   source      ORB  
   producer      Otto Matic  
   solution date      2020-May-21 19:32:35  

Additional Information
 Jupiter MOID = 1.92414 au 
 T_jup = 3.210 
Orbit Covariance (6×6)
  e q tp node peri i
e 3.381257430539738E-15 -1.068889141013184E-14 9.455996000466827E-13 1.804671380143669E-14 1.704979168074516E-13 -1.212048828503132E-16
q -1.068889141013184E-14 3.462986101485447E-14 -1.856235526238497E-12 -5.823076406878402E-14 -3.841177701203458E-13 1.171573486491383E-15
tp 9.455996000466827E-13 -1.856235526238497E-12 1.331317501283649E-8 3.608246639052576E-12 2.320496269407089E-9 3.185887140598833E-12
node 1.804671380143669E-14 -5.823076406878402E-14 3.608246639052576E-12 1.231897670586748E-8 -1.230208368802419E-8 -9.466805269432677E-11
peri 1.704979168074516E-13 -3.841177701203458E-13 2.320496269407089E-9 -1.230208368802419E-8 1.271275010378469E-8 9.507077665160457E-11
i -1.212048828503132E-16 1.171573486491383E-15 3.185887140598833E-12 -9.466805269432677E-11 9.507077665160457E-11 4.746211996090216E-11

Ephemeris | Orbit Diagram | Orbital Elements | Mission Design | Physical Parameters | Discovery Circumstances | Close-Approach Data ]

Physical Parameter Table
Parameter Symbol Value Units Sigma Reference Notes
absolute magnitude H 15.9   n/a MPO437337  

300096 (2006 UB255)          Discovered 2006-Oct-27 by Mt. Lemmon Survey at Mount Lemmon
Reference: 20111012/Numbers.arcLast Updated: 2011-10-13

[ hide close-approach data ]
Close-Approach Data   ...sorted by Date/Time (TDB)
Date/Time (TDB) Time Uncertainty
(days_HH:MM)
Body Nominal Distance (au) Minimum Distance (au) Maximum Distance (au) V-relative (km/s) V-infinity (km/s) JD (TDB) Time Uncertainty (minutes) Semi-major axis (km) Semi-minor axis (km) range-LOV angle (deg) N-sigma BP Orbit Ref. Reference Modified
1922-Nov-17 05:02 00:05 Jupiter 1.95128297684584 1.95128223114135 1.9512837225511 2.43560739569889 2.25033631820954 2423375.709958194 4.9549080859138 168.655095181291 12.280726215466 -89.6381112626352 1855012.97956701 T 13 CATAB v2.0f-lin.ifort 2020-May-21 19:32:37 2020-May-21 19:33
1982-Jul-27 21:28 00:02 Jupiter 1.96527307963611 1.96527241983443 1.96527373943745 2.53311183422828 2.35683387749998 2445178.394354943 1.81092144523525 88.3711548621566 13.6661096242241 87.5107587629245 1886751.78643549 T 13 CATAB v2.0f-lin.ifort 2020-May-21 19:32:37 2020-May-21 19:33
1992-May-27 22:04 00:01 Jupiter 1.98432972737556 1.9843292024408 1.98433025231033 2.57534254392422 2.40388805002749 2448770.419579900 1.25198568745946 92.5833486809352 10.782077336213 -89.5163480906146 2395489.75144295 T 13 CATAB v2.0f-lin.ifort 2020-May-21 19:32:37 2020-May-21 19:33
2042-Apr-06 23:07 00:01 Jupiter 1.9842416949345 1.98424111727108 1.9842422725978 2.66598137346126 2.50074135939361 2466981.462878603 1.36979083875154 72.7389117531608 12.9683504839076 84.864195267758 2084248.27504675 T 13 CATAB v2.0f-lin.ifort 2020-May-21 19:32:37 2020-May-21 19:33
2052-Feb-06 04:53 00:02 Jupiter 1.96371375405363 1.96371321544012 1.96371429266726 2.46313449443349 2.28130607750092 2470573.703311227 1.93613634291244 120.4766607734 9.74267825850234 88.1359893250966 2350003.47326339 T 13 CATAB v2.0f-lin.ifort 2020-May-21 19:32:37 2020-May-21 19:33
2111-Oct-19 07:14 00:05 Jupiter 1.94769300269947 1.94769234877726 1.94769365662644 2.39057379807412 2.20115266133856 2492377.801488562 5.08147767367069 266.923023369019 8.56775708620124 87.9681132381891 2191367.13099418 T 13 CATAB v2.0f-lin.ifort 2020-May-21 19:32:37 2020-May-21 19:33
2171-Jul-01 09:53 00:08 Jupiter 1.93722406034805 1.93722341971008 1.93722470099406 2.35650754385855 2.16302044350373 2514182.911775280 8.23520474154845 374.754098386523 8.3787422853071 87.954486225353 2089431.51724789 T 13 CATAB v2.0f-lin.ifort 2020-May-21 19:32:37 2020-May-21 19:33
Ephemeris | Orbit Diagram | Orbital Elements | Mission Design | Physical Parameters | Discovery Circumstances | Close-Approach Data ]
ABOUT SSD CREDITS/AWARDS PRIVACY/COPYRIGHT GLOSSARY LINKS
FirstGov 2020-Oct-25 02:56 UT
(server date/time)  
NASA Home Page
Site Manager:   Ryan S. Park
Webmaster  Alan B. Chamberlin